Find Starlink 36376

NORAD ID: 67590 Int'l Des: 2026-018 Owner: SPXS Country: US Constellation: starlink operational
LEOCIRCULARRETROGRADE

当前视图

正在加载3D地球...

关于 Starlink 36376

正在加载描述...

即将过境

Passes for default location (London). Set your location on the main map for personalized predictions.

高度历史

Loading altitude history...

两行轨道根数

1 67590U 26018B 26146.58988794 .00021229 00000-0 65752-3 0 9995
2 67590 97.2866 211.7116 0000366 242.0725 118.0480 15.33471032 19273
Epoch: May 26, 2026 • Age: 9 hours

当前状态

高度 468.1 km
速度 7.63 km/s
星下点 19.98°N, 169.96°E
发射日期 Jan 29, 2026
运行时间 0.3 years
类型 internet

技术详情

分类 Payload
质量 575.00 kg
干质量 530.00 kg
总质量 575.00 kg
长度 0.30 m
直径 4.10 m
跨度 29.00 m
形状 Box + pan
制造商 SPXS
平台类型 Starlink V2MO
阶段状态 In Orbit
所有者/国家 SPXS/US

Most Searched